ONEWEB-0046 (45447 NORAD) Tracking and Keplerian Element Data

This shows tracking and keplerian element data for the satellite.

Feedback or suggestion? Click here.




ElementValue
Catalog45447
NameONEWEB-0046
Epoch Orbit93
Epoch Day88.0284252
Epoch Year2020
RAAN136.6761
Inclination87.3975
Eccentricity0.0025364
Argument of Perigee281.4098
Mean Anonmoly78.4305
Mean Motion15.35459974
Decay Rate1.974E-05
L11 45447U 20020Z 20088.02842520 .00001974 00000-0 55526-4 0 9997
L22 45447 87.3975 136.6761 0025364 281.4098 78.4305 15.35459974 938

Live tracking and technical data element details for ONEWEB-0046 (NORAD 45447). ONEWEB-0046 can be tracked NOW for your location showing map with azimuth and elevation plus other details from your city location.

Track the satellite on the map from your city or location and see movement details for azimuth, elevation, latitude, longitude, range, height, and movement on the map or in text.







IsCatalogInMostPopularTable: catalog: 45447, numindb: -1

Insert: records affected: 1


GetName: 45447 ONEWEB-0046

Hit Count: inserted at: Tue, 31 Mar 2020 14:17:44 GMT